Miscellaneous Local Product
Issued by NWS Hastings, NE

Home | Current Version | Previous Version | Text Only | Print | Product List | Glossary On
Versions: 1 2 3 4 5 6 7 8 9 10 11 12 13 14 15 16 17 18 19 20 21 22 23 24 25 26 27 28 29 30 31 32 33 34 35 36 37 38 39 40 41 42 43 44 45 46 47 48 49 50
748
AXUS43 KGID 232202
MISGRI

GID CWA HOURLY WEATHER ROUNDUP
NATIONAL WEATHER SERVICE HASTINGS NE
500 PM CDT SAT JUL 23 2016

NOTE: "FAIR" INDICATES FEW OR NO CLOUDS BELOW 12,000 FEET WITH NO
SIGNIFICANT WEATHER AND/OR OBSTRUCTIONS TO VISIBILITY.

...SOUTH CENTRAL NEBRASKA...

CITY           SKY/WX    TMP DP  RH WIND       PRES   REMARKS
GRAND ISLAND   CLOUDY    95  68  41 SW10      29.81S HX  99
HASTINGS       SUNNY     98  71  41 W7        29.81F HX 106
KEARNEY        CLOUDY    95  72  46 SW9       29.83F HX 103
ORD            CLOUDY    92  74  55 S8        29.80S HX 101
YORK           CLOUDY    90  75  62 S14G20    29.81F HX 100
AURORA         CLOUDY    94  72  49 S8        29.80F HX 101
LEXINGTON      CLOUDY    91  71  51 SE3       29.85S HX  97
HOLDREGE       SUNNY     92  66  42 SW3       29.84F HX  95
HEBRON         CLOUDY    95  69  43 S14       29.80F HX 100

...NEBRASKA PANHANDLE...

CITY           SKY/WX    TMP DP  RH WIND       PRES   REMARKS
CHADRON        SUNNY     93  48  21 NE8       29.91F
ALLIANCE       SUNNY     93  50  23 N9        29.95F HX  90
SCOTTSBLUFF    SUNNY     97  44  16 N7        29.94F HX  93
SIDNEY         SUNNY     94  42  16 N14G21    29.99F HX  90

...WESTERN AND NORTH CENTRAL NEBRASKA...

CITY           SKY/WX    TMP DP  RH WIND       PRES   REMARKS
VALENTINE      SUNNY     94  56  27 NW16      29.86R HX  92
AINSWORTH      SUNNY     93  62  36 N16G22    29.85R HX  93
ONEILL         CLOUDY    95  68  41 SW10      29.78S HX 100
BROKEN BOW     CLOUDY    89  74  60 SW7       29.84F HX  98
IMPERIAL       SUNNY     98  58  26 N9        29.90F HX  97
NORTH PLATTE   CLOUDY    95  72  47 NW8       29.86F HX 103
MCCOOK         CLOUDY    93  70  46 E9        29.85F HX  99

...EASTERN NEBRASKA...

CITY           SKY/WX    TMP DP  RH WIND       PRES   REMARKS
NORFOLK        CLOUDY    89  73  59 S8        29.78S HX  97
SO SIOUX CITY  SUNNY     93  76  57 S14       29.75F HX 105
TEKAMAH        SUNNY     92  75  57 S15       29.76F HX 103
COLUMBUS       CLOUDY    90  72  55 S10       29.79S HX  96
ALBION         CLOUDY    88  74  63 SW7       29.80R HX  97
OMAHA EPPLEY   MOSUNNY   93  74  53 S14       29.78F HX 103
OFFUTT AFB     CLOUDY    92  76  61 S10       29.79F HX 104
MILLARD        SUNNY     92  76  60 S10G17    29.79S HX 105
LINCOLN        PTSUNNY   93  75  55 S13       29.79F HX 104
NEBRASKA CITY  CLOUDY    89  78  69 S12       29.81F HX 103
BEATRICE       CLOUDY    89  76  65 SE8       29.81F HX 101
FALLS CITY     CLOUDY    88  75  65 S8        29.83F HX  97

...NORTHERN KANSAS...

CITY           SKY/WX    TMP DP  RH WIND       PRES   REMARKS
GOODLAND       SUNNY    101  50  18 NE13      29.93F HX  98
HILL CITY      SUNNY    102  64  28 NW9       29.80F HX 105
NORTON         CLEAR     99  54  22 CALM      29.83  HX  96
SMITH CENTER   SUNNY    106  59  21 S10       29.79F HX 106
BELOIT         SUNNY    100  63  28 S14G23    29.78F HX 102
HAYS           SUNNY    106  52  16 SW18G25   29.80F HX 103
RUSSELL        SUNNY    104  55  19 S23G29    29.80F HX 102
CONCORDIA      SUNNY     98  67  36 S18G24    29.81F HX 102
SALINA         MOSUNNY   99  65  32 SE10      29.82S HX 102
TOPEKA         CLOUDY    92  72  51 SE10      29.86S HX  99



USA.gov is the U.S. government's official web portal to all federal, state and local government web resources and services.